Location: Kuppenheim
(48.8299°N, 8.2568°E)
Time: 03:52:43
(UTC+00:00)

Daily predictions for brighter satellites

Satellite Brightness Start Highest point End
(mag) Time Altitude Azimuth Time Altitude Azimuth Time Altitude Azimuth
ATLAS CENTAUR R/B 4.2 00:07:55 10° WSW 00:13:59 75° NNW 00:30:58 10° ENE
Cosmos 1825 2.6 00:13:02 33° SSE 00:14:24 52° E 00:18:05 10° NNE
Cosmos 540 Rocket 4.2 00:15:11 24° SSE 00:17:42 41° ESE 00:22:29 10° NE
Cosmos 990 Rocket 4.0 00:14:42 10° NNW 00:19:52 68° WSW 00:22:38 27° S
Cosmos 1408 2.6 00:19:18 40° SSW 00:20:30 75° W 00:24:12 10° N
Cosmos 1242 Rocket 3.8 00:20:28 10° N 00:23:50 36° ENE 00:26:09 17° SE
SL-16 R/B 3.0 00:19:56 16° WSW 00:24:17 46° NW 00:29:46 10° NNE
Cosmos 405 Rocket 2.5 00:23:36 39° S 00:24:53 79° E 00:28:35 10° NNE
Cosmos 1656 Rocket 3.7 00:19:52 10° NNW 00:25:36 86° ENE 00:30:16 16° SSE
Cosmos 841 Rocket 4.2 00:23:03 23° SSE 00:25:45 41° ESE 00:30:34 10° NE
Cosmos 2221 2.9 00:21:33 10° N 00:25:49 59° ENE 00:28:23 22° SSE
Cosmos 2058 3.3 00:24:22 29° SSE 00:26:13 55° E 00:30:14 10° NNE
USA 229 DEB 3.6 00:22:35 23° SW 00:26:55 85° SE 00:33:51 10° NE
USA 229 3.6 00:22:43 23° SW 00:27:02 85° SE 00:33:57 10° NE
Meteor 2-13 Rocket 4.4 00:23:59 26° SSW 00:27:41 85° W 00:33:54 10° N
Cosmos 2237 Rocket 4.3 00:23:38 10° W 00:27:53 21° NW 00:32:09 10° N
X-37B 1.5 00:28:47 33° SE 00:28:47 33° SE 00:31:01 10° ESE
Cosmos 1898 Rocket 3.5 00:27:58 10° NNW 00:33:10 66° WSW 00:36:10 25° S
Cosmos 1937 Rocket 3.5 00:28:08 10° NNW 00:33:30 87° WSW 00:37:19 20° SSE
Nadezhda 4 Rocket 4.1 00:30:48 22° S 00:34:49 69° E 00:40:55 10° NNE
Cosmos 2369 Rocket 2.4 00:30:04 10° NW 00:35:40 55° WSW 00:38:58 24° S
NOSS 3-1 (C) 3.7 00:31:11 15° WSW 00:35:44 61° NW 00:42:13 10° NE
Aureole 3 Rocket 4.0 00:33:51 10° N 00:37:33 44° ENE 00:41:59 12° SSE
YAOGAN 11 4.1 00:35:34 28° S 00:37:51 71° WSW 00:42:22 10° NNW
Cosmos 1356 4.0 00:37:29 31° WSW 00:38:36 44° WNW 00:41:54 10° N
SJ 16-02 3.1 00:36:05 10° NW 00:39:01 18° W 00:40:01 17° WSW
USA 307 4.2 00:38:07 22° SSE 00:39:02 24° SE 00:42:28 10° E
FALCON 9 DEB 4.3 00:36:49 10° WNW 00:39:49 40° N 00:42:48 10° E
CREW DRAGON DEMO-1 DEB 2.0 00:40:05 82° WSW 00:40:10 89° NW 00:42:37 10° ENE
USA 215 4.1 00:38:49 10° ENE 00:45:07 52° NNW 00:51:24 10° W
NOSS 2-3 (E) 4.3 00:42:31 17° WSW 00:45:40 52° NW 00:50:40 10° NE
NOSS 3-1 (A) 3.4 00:42:41 20° SW 00:46:34 79° NW 00:53:05 10° NE
Cosmos 2263 4.3 00:43:46 10° NW 00:49:21 58° WSW 00:53:06 20° S
ATLAS 5 CENTAUR R/B 2.8 00:48:04 20° SSE 00:49:41 26° ESE 00:53:16 10° ENE
CZ-4 R/B 3.8 00:46:10 10° NNE 00:50:51 78° WNW 00:53:33 25° SSW
Helios 1B rocket 3.6 00:47:46 10° NNE 00:51:32 34° E 00:54:08 17° SSE
USA 308 3.9 00:53:26 24° S 00:54:51 30° SE 00:58:36 10° ENE
Cosmos 1633 3.4 00:53:22 22° SSE 00:55:15 41° E 00:58:37 10° NNE
ADEOS Rocket 4.1 00:48:53 10° SE 00:55:47 50° ENE 01:02:02 10° N
FALCON 9 DEB 3.8 00:53:57 10° WNW 00:56:59 49° NNE 01:00:00 10° E
CZ-3B R/B 3.6 00:47:56 10° WNW 00:57:31 48° N 01:00:40 10° ENE
UNK 4.0 00:54:25 14° SSE 00:58:21 69° ENE 01:02:58 10° N
Cosmos 1606 2.6 00:58:02 10° N 01:01:55 89° ESE 01:04:12 23° S
Helios 1A 3.5 01:00:06 26° SSW 01:02:00 44° W 01:06:02 10° NNW
FALCON 9 DEB 4.0 01:00:42 10° WNW 01:03:45 47° NNE 01:06:47 10° E
Cosmos 1570 Rocket 4.3 01:01:44 21° S 01:05:10 60° ESE 01:10:19 10° NNE
SL-16 R/B 2.5 00:59:52 12° SSE 01:05:41 90° WSW 01:11:55 10° NNW
FALCON 9 DEB 3.7 01:04:11 10° WNW 01:07:15 53° NNE 01:10:17 10° E
Cosmos 372 Rocket 3.9 01:03:13 10° NNW 01:08:29 76° WSW 01:13:10 13° SSE
USA 305 3.4 01:10:32 24° SSW 01:12:35 43° SE 01:16:38 10° ENE
USA 290 2.9 01:11:15 25° S 01:12:47 46° ESE 01:15:53 10° NE
Lacrosse 4 Rocket 1.3 01:10:42 10° NNW 01:14:50 84° NE 01:18:53 10° SE
CZ-4C R/B 4.4 01:14:16 10° ESE 01:15:37 11° ESE 01:17:02 10° E
Cosmos 1092 Rocket 4.0 01:11:05 18° S 01:15:50 83° E 01:22:01 10° N
Cosmos 2098 Rocket 3.6 01:15:08 21° SSW 01:18:44 60° W 01:23:04 10° N
Cosmos 1763 Rocket 4.4 01:15:44 15° WSW 01:19:29 39° WNW 01:24:19 10° N
BREEZE-M R/B 3.4 01:18:11 22° SSW 01:19:55 37° SE 01:24:40 10° ENE
Resurs 1-4 Rocket 2.1 01:15:03 10° NNE 01:20:24 90° W 01:24:24 18° SSW
Cosmos 2208 Rocket 4.3 01:16:33 19° S 01:20:30 66° ESE 01:25:56 10° NNE
Cosmos 1437 Rocket 3.9 01:17:28 10° NNW 01:20:47 27° W 01:22:18 20° SW
USA 267 4.5 01:19:19 17° SW 01:20:52 19° WSW 01:25:15 10° W
Meteor 2-19 Rocket 4.5 01:16:27 18° S 01:21:14 90° NW 01:27:24 10° N
Meteor 1-29 4.1 01:21:11 10° NNE 01:24:23 36° E 01:26:57 14° SSE
OE (NEXTSAT) 4.5 01:22:34 19° WSW 01:24:45 51° S 01:28:07 10° E
SL-4 R/B 2.4 01:22:33 10° WNW 01:26:15 55° N 01:29:43 10° E
Cosmos 1943 Rocket 4.1 01:26:33 10° W 01:27:55 11° W 01:29:16 10° WSW
MINOTAUR 4 R/B 4.2 01:26:32 11° SSE 01:29:50 74° ENE 01:33:23 10° N
NPP 3.7 01:26:09 10° NNE 01:31:35 89° E 01:35:57 16° SSW
ADEOS II 2.6 01:26:50 10° NNE 01:32:02 56° E 01:36:49 12° S
NOSS 2-2 (D) 3.2 01:30:21 22° SSW 01:32:21 60° SE 01:36:03 10° NE
USA 306 3.0 01:32:05 19° SW 01:34:55 59° SE 01:39:07 10° ENE
Lacrosse 5 rocket 2.8 01:31:45 10° NW 01:35:06 35° NNE 01:38:31 10° E
Cosmos 921 Rocket 3.2 01:32:38 19° SW 01:35:28 58° WNW 01:39:37 10° NNE
FALCON 9 DEB 3.4 01:33:25 10° WNW 01:36:40 42° SW 01:39:53 10° SE
Meteor 2-3 Rocket 4.1 01:31:29 12° S 01:36:41 62° E 01:42:11 10° NNE
Cosmos 1943 3.9 01:33:25 14° SW 01:38:02 47° NW 01:43:31 10° NNE
CZ-2D R/B 2.2 01:33:55 10° N 01:39:06 66° WNW 01:43:15 16° SSW
Alouette 2 Rocket 4.4 01:36:54 10° N 01:40:20 43° ENE 01:44:11 10° SE
IDEFIX/ARIANE 42P 3.6 01:41:24 10° NNE 01:46:23 42° E 01:51:19 10° SSE
Cosmos 2151 3.0 01:44:56 16° SSW 01:48:13 73° W 01:52:27 10° N
Cosmos 1825 4.4 01:48:04 10° W 01:50:12 14° WNW 01:52:21 10° NNW
AQUA 3.9 01:46:26 10° N 01:51:13 73° WNW 01:55:17 14° SSW
EXPRESS MD2 4.4 01:41:55 10° WSW 01:51:18 75° SSE 01:55:43 10° ENE
Cosmos 1076 Rocket 4.3 01:49:45 16° SW 01:52:47 38° WNW 01:56:47 10° N
Cosmos 1437 3.9 01:52:35 10° NW 01:54:46 21° W 01:55:51 17° SW
Meteor 1-26 Rocket 4.4 01:49:16 10° NNW 01:55:07 87° W 02:01:07 10° S
Cosmos 1242 Rocket 4.4 01:55:57 10° NW 01:58:23 17° W 02:00:05 13° WSW
DELTA 2 R/B (1) 4.3 01:57:42 10° WSW 02:02:33 32° S 02:07:25 10° ESE
Cosmos 2221 4.4 02:00:24 10° NW 02:02:52 15° W 02:05:12 10° WSW
X-37B 1.4 02:01:26 10° WSW 02:04:18 30° SSW 02:07:09 10° SE
CBERS-1 4.3 02:00:37 10° NNE 02:05:46 69° ESE 02:10:53 10° S
IRS-1D 3.6 02:00:50 10° NNE 02:06:01 84° ESE 02:11:03 10° SSW
BREEZE-M DEB (TANK) 1.1 02:04:10 10° W 02:06:34 75° SSW 02:09:06 10° ESE
Cosmos 1812 3.6 02:05:56 10° N 02:09:42 51° ENE 02:13:26 10° SSE
Cosmos 1553 Rocket 4.0 02:03:40 10° NNW 02:09:57 70° W 02:16:06 10° S
NOSS 2-2 (E) 3.8 02:08:02 11° WSW 02:11:17 47° NW 02:15:09 10° NE
Cosmos 2292 Rocket 2.7 02:09:53 13° SSW 02:12:25 59° W 02:15:24 10° N
SL-08 R/B 4.4 02:09:04 10° SE 02:13:32 47° ENE 02:18:07 10° N
CREW DRAGON DEMO-1 DEB 3.6 02:11:41 10° WNW 02:14:01 39° N 02:16:21 10° ENE
Cosmos 1697 Rocket 4.3 02:09:41 10° NNW 02:14:59 39° NE 02:20:15 10° ESE
FALCON 9 DEB 2.8 02:12:34 10° WNW 02:15:41 71° SSW 02:18:48 10° SE
S3M 4.0 02:09:51 10° N 02:16:02 89° W 02:22:16 10° S
Cosmos 1782 2.9 02:12:38 10° NNW 02:16:36 63° W 02:20:34 10° S
USA 281 3.2 02:11:27 10° SSE 02:18:02 83° WSW 02:24:40 10° NNW
Meteor 2-14 Rocket 4.5 02:12:19 10° S 02:18:25 86° W 02:24:37 10° N
Cosmos 1271 Rocket 2.6 02:14:48 10° NNW 02:18:35 88° WSW 02:22:19 10° S
USA 307 2.9 02:14:22 10° WSW 02:18:38 84° NNW 02:22:54 10° ENE
MSX 4.3 02:13:06 10° NNE 02:18:50 59° ESE 02:24:28 10° S
NOSS 2-2 (C) 3.9 02:21:38 10° WSW 02:24:57 45° NW 02:28:44 10° NNE
CZ-4C R/B 2.9 02:22:03 10° S 02:25:29 70° WSW 02:28:57 10° NNW
Helios 1B rocket 3.8 02:23:15 10° N 02:26:39 26° WNW 02:30:02 10° WSW
USA 215 4.5 02:21:22 10° ENE 02:27:29 44° N 02:33:36 10° WNW
ERBS 2.9 02:24:39 10° SSW 02:27:41 42° SE 02:30:47 10° ENE
Cosmos 1328 Rocket 3.6 02:26:15 10° NNW 02:30:36 69° W 02:34:56 10° S
NOSS 3-2 (A) 4.2 02:24:00 10° NW 02:31:26 87° NE 02:39:57 10° SE
FALCON 9 DEB 3.3 02:29:38 10° WNW 02:32:34 39° SW 02:35:27 10° SE
ATLAS 5 CENTAUR R/B 2.3 02:30:05 10° WSW 02:33:59 45° NW 02:38:26 10° NE
USA 308 3.1 02:30:20 10° WSW 02:34:35 72° NNW 02:38:51 10° ENE
SeaSat 1 2.8 02:30:22 10° NE 02:35:17 62° ESE 02:40:10 10° SSW
Spot 1 4.4 02:31:16 10° S 02:36:18 68° WSW 02:41:09 10° NNW
FALCON 9 DEB 3.2 02:36:28 10° WNW 02:39:28 44° SSW 02:42:26 10° SE
Meteor 2-6 Rocket 4.3 02:33:34 10° NNW 02:39:30 83° W 02:45:16 10° S
ADEOS Rocket 3.9 02:34:43 10° SSW 02:41:22 38° W 02:47:30 10° NNW
FALCON 9 DEB 3.5 02:39:56 10° WNW 02:42:48 34° SW 02:45:39 10° SSE
Cosmos 1980 Rocket 4.1 02:39:34 10° NNW 02:44:44 36° NE 02:49:51 10° ESE
